TPC506 KGYR-KYUS

Flight info

Callsign TPC506
Flight time N/A
Altitude 9000
Route DCT
Aircraft AEST/L-SDFG/S

Departure

Time 2026-04-24 00:17
Airport Phoenix Goodyear Airport (KGYR)

Arrival

Time N/A
Airport KYUS
Time Latitude Longitude Altitude Speed Heading
2026-04-24 00:01 33.43146 -112.36580 975 ft 0 kts 279°
2026-04-24 00:15 33.43151 -112.36600 982 ft 9 kts 292°
2026-04-24 00:15 33.43185 -112.36612 975 ft 4 kts
2026-04-24 00:15 33.43189 -112.36612 986 ft 0 kts 349°
2026-04-24 00:16 33.43191 -112.36613 975 ft 3 kts 347°
2026-04-24 00:16 33.43228 -112.36697 976 ft 11 kts 260°
2026-04-24 00:16 33.43132 -112.36800 974 ft 50 kts 217°
2026-04-24 00:16 33.42700 -112.37221 1086 ft 88 kts 221°
2026-04-24 00:17 33.42238 -112.37721 1346 ft 97 kts 219°
2026-04-24 00:17 33.41695 -112.38235 1461 ft 103 kts 219°
2026-04-24 00:17 33.41085 -112.38776 1673 ft 108 kts 221°
2026-04-24 00:17 33.40439 -112.39163 1877 ft 104 kts 187°
2026-04-24 00:18 33.39730 -112.38834 1992 ft 122 kts 139°
2026-04-24 00:18 33.39189 -112.37886 1892 ft 154 kts 121°
2026-04-24 00:18 33.38733 -112.36704 1855 ft 156 kts 114°
2026-04-24 00:18 33.38360 -112.35502 1829 ft 152 kts 112°
2026-04-24 00:19 33.38155 -112.34337 1799 ft 128 kts 85°
2026-04-24 00:19 33.38563 -112.33512 1668 ft 118 kts 29°
2026-04-24 00:19 33.39332 -112.33270 1584 ft 110 kts 342°
2026-04-24 00:19 33.40050 -112.33554 1511 ft 110 kts 321°
2026-04-24 00:20 33.40663 -112.33998 1575 ft 102 kts 314°
2026-04-24 00:20 33.41238 -112.34478 1639 ft 94 kts 315°
2026-04-24 00:20 33.41846 -112.34991 1542 ft 115 kts 319°
2026-04-24 00:20 33.42564 -112.35382 1607 ft 105 kts 347°
2026-04-24 00:21 33.43238 -112.35487 1494 ft 96 kts 329°
2026-04-24 00:21 33.43693 -112.35975 1346 ft 83 kts 273°
2026-04-24 00:21 33.43470 -112.36504 1140 ft 83 kts 212°
2026-04-24 00:21 33.42990 -112.36922 1037 ft 83 kts 217°
2026-04-24 00:22 33.42716 -112.37167 977 ft 63 kts 220°
2026-04-24 00:22 33.42479 -112.37365 965 ft 12 kts 124°
2026-04-24 00:22 33.42512 -112.37363 965 ft 8 kts 345°
2026-04-24 00:22 33.42493 -112.37297 965 ft 10 kts 93°
2026-04-24 00:23 33.42549 -112.37162 965 ft 20 kts 41°
2026-04-24 00:23 33.42662 -112.37065 965 ft 20 kts 40°
2026-04-24 00:23 33.42766 -112.36958 967 ft 19 kts 41°
2026-04-24 00:23 33.42867 -112.36857 969 ft 19 kts 34°
2026-04-24 00:24 33.42968 -112.36765 976 ft 15 kts 39°
2026-04-24 00:24 33.42981 -112.36751 975 ft 0 kts 40°
2026-04-24 00:26 33.42982 -112.36751 975 ft 0 kts 40°
2026-04-24 00:26 33.42981 -112.36751 975 ft 0 kts 40°
2026-04-24 00:26 33.42982 -112.36751 975 ft 0 kts 40°
2026-04-24 00:27 33.42981 -112.36751 975 ft 0 kts 40°
2026-04-24 00:27 33.42982 -112.36751 975 ft 0 kts 40°
2026-04-24 00:28 33.42981 -112.36751 975 ft 0 kts 40°
2026-04-24 00:28 33.42982 -112.36751 975 ft 0 kts 40°
2026-04-24 00:33 33.43003 -112.36729 972 ft 8 kts 34°
2026-04-24 00:33 33.43075 -112.36761 973 ft 14 kts 306°
2026-04-24 00:33 33.43040 -112.36852 976 ft 26 kts 233°
2026-04-24 00:34 33.42752 -112.37154 980 ft 83 kts 220°
2026-04-24 00:34 33.42286 -112.37643 1124 ft 101 kts 219°
2026-04-24 00:34 33.41681 -112.38198 1262 ft 117 kts 216°
2026-04-24 00:34 33.40964 -112.38747 1345 ft 124 kts 215°
2026-04-24 00:35 33.40228 -112.39253 1431 ft 123 kts 209°
2026-04-24 00:35 33.39502 -112.39515 1799 ft 94 kts 176°
2026-04-24 00:35 33.38977 -112.39008 1972 ft 119 kts 126°
2026-04-24 00:35 33.38675 -112.37929 1996 ft 155 kts 109°
2026-04-24 00:36 33.38389 -112.36683 2202 ft 147 kts 112°
2026-04-24 00:36 33.38143 -112.35480 2472 ft 155 kts 104°
2026-04-24 00:36 33.37946 -112.34220 2984 ft 146 kts 101°
2026-04-24 00:36 33.37793 -112.32998 3298 ft 159 kts 102°
2026-04-24 00:37 33.37589 -112.31636 3508 ft 172 kts 103°
2026-04-24 00:37 33.37352 -112.30210 3706 ft 179 kts 104°
2026-04-24 00:37 33.36850 -112.28843 3951 ft 180 kts 126°
2026-04-24 00:37 33.36121 -112.27594 4135 ft 187 kts 129°
2026-04-24 00:38 33.35318 -112.26331 4276 ft 194 kts 134°
2026-04-24 00:38 33.34425 -112.25109 4516 ft 193 kts 137°
2026-04-24 00:38 33.33518 -112.23974 4913 ft 186 kts 138°
2026-04-24 00:38 33.32632 -112.22841 5103 ft 193 kts 137°
2026-04-24 00:39 33.31673 -112.21690 5284 ft 196 kts 142°
2026-04-24 00:39 33.30636 -112.20614 5473 ft 197 kts 144°
2026-04-24 00:39 33.29591 -112.19558 5648 ft 198 kts 144°
2026-04-24 00:39 33.28408 -112.18767 5893 ft 192 kts 163°
2026-04-24 00:40 33.27187 -112.18118 6039 ft 193 kts 153°
2026-04-24 00:40 33.26107 -112.17151 6199 ft 197 kts 143°
2026-04-24 00:40 33.25091 -112.16040 6363 ft 198 kts 140°
2026-04-24 00:40 33.24089 -112.14918 6518 ft 197 kts 140°
2026-04-24 00:41 33.23085 -112.13809 6675 ft 197 kts 140°
2026-04-24 00:41 33.22071 -112.12689 6823 ft 197 kts 141°
2026-04-24 00:41 33.21079 -112.11606 6974 ft 195 kts 142°
2026-04-24 00:41 33.20081 -112.10517 7118 ft 194 kts 142°
2026-04-24 00:42 33.19085 -112.09432 7268 ft 193 kts 143°
2026-04-24 00:42 33.18091 -112.08354 7414 ft 193 kts 142°
2026-04-24 00:42 33.17091 -112.07266 7559 ft 195 kts 142°
2026-04-24 00:42 33.16089 -112.06169 7698 ft 195 kts 142°
2026-04-24 00:43 33.15086 -112.05073 7826 ft 197 kts 142°
2026-04-24 00:43 33.14075 -112.03970 7958 ft 197 kts 142°
2026-04-24 00:43 33.13062 -112.02869 8087 ft 198 kts 142°
2026-04-24 00:43 33.12049 -112.01767 8220 ft 197 kts 142°
2026-04-24 00:44 33.11031 -112.00657 8347 ft 198 kts 142°
2026-04-24 00:44 33.10005 -111.99538 8481 ft 201 kts 143°
2026-04-24 00:44 33.08969 -111.98412 8619 ft 202 kts 143°
2026-04-24 00:44 33.07945 -111.97299 8751 ft 202 kts 143°
2026-04-24 00:45 33.06893 -111.96153 8885 ft 202 kts 143°
2026-04-24 00:45 33.05848 -111.95020 8984 ft 205 kts 143°
2026-04-24 00:45 33.04778 -111.93861 8980 ft 211 kts 143°
2026-04-24 00:45 33.03671 -111.92667 8981 ft 217 kts 143°
2026-04-24 00:46 33.02557 -111.91460 8982 ft 220 kts 143°
2026-04-24 00:46 33.01421 -111.90223 8985 ft 222 kts 143°
2026-04-24 00:46 33.00272 -111.88978 8973 ft 223 kts 143°
2026-04-24 00:46 32.99123 -111.87730 8982 ft 223 kts 143°
2026-04-24 00:47 32.97975 -111.86483 8988 ft 224 kts 143°
2026-04-24 00:47 32.96816 -111.85229 8985 ft 225 kts 143°
2026-04-24 00:47 32.95656 -111.83972 8983 ft 225 kts 143°
2026-04-24 00:47 32.94497 -111.82714 8984 ft 226 kts 143°
2026-04-24 00:48 32.93331 -111.81452 8987 ft 227 kts 143°
2026-04-24 00:48 32.92163 -111.80190 8986 ft 227 kts 143°
2026-04-24 00:48 32.90995 -111.78926 8987 ft 227 kts 143°
2026-04-24 00:48 32.89829 -111.77668 8982 ft 226 kts 143°
2026-04-24 00:49 32.88669 -111.76410 8984 ft 226 kts 142°
2026-04-24 00:49 32.87501 -111.75151 8984 ft 227 kts 142°
2026-04-24 00:49 32.86333 -111.73886 8984 ft 227 kts 142°
2026-04-24 00:49 32.85163 -111.72623 8983 ft 226 kts 142°
2026-04-24 00:50 32.83996 -111.71373 8982 ft 226 kts 143°
2026-04-24 00:50 32.82827 -111.70119 8979 ft 226 kts 143°
2026-04-24 00:50 32.81662 -111.68863 8976 ft 226 kts 143°
2026-04-24 00:50 32.80498 -111.67604 8974 ft 226 kts 143°
2026-04-24 00:51 32.79331 -111.66345 8958 ft 227 kts 143°
2026-04-24 00:51 32.78165 -111.65092 8970 ft 226 kts 143°
2026-04-24 00:51 32.77017 -111.63854 8971 ft 226 kts 143°
2026-04-24 00:51 32.75850 -111.62596 8967 ft 226 kts 143°
2026-04-24 00:52 32.74682 -111.61336 8967 ft 227 kts 143°
2026-04-24 00:52 32.73513 -111.60078 8967 ft 227 kts 143°
2026-04-24 00:52 32.72342 -111.58822 8965 ft 227 kts 143°
2026-04-24 00:52 32.71172 -111.57567 8962 ft 227 kts 143°
2026-04-24 00:53 32.70002 -111.56309 8949 ft 227 kts 143°
2026-04-24 00:53 32.68833 -111.55051 8966 ft 227 kts 143°
2026-04-24 00:53 32.67666 -111.53798 8971 ft 226 kts 143°
2026-04-24 00:53 32.66502 -111.52546 8972 ft 226 kts 143°
2026-04-24 00:54 32.65334 -111.51294 8977 ft 226 kts 143°
2026-04-24 00:54 32.64169 -111.50045 8980 ft 226 kts 143°
2026-04-24 00:54 32.62999 -111.48792 8983 ft 227 kts 143°
2026-04-24 00:54 32.61829 -111.47539 8983 ft 226 kts 143°
2026-04-24 00:55 32.60663 -111.46289 8971 ft 226 kts 143°
2026-04-24 00:55 32.59497 -111.45040 8990 ft 226 kts 143°
2026-04-24 00:55 32.58330 -111.43787 8990 ft 226 kts 143°
2026-04-24 00:55 32.57165 -111.42551 8994 ft 224 kts 143°
2026-04-24 00:56 32.56012 -111.41319 9003 ft 223 kts 142°
2026-04-24 00:56 32.54867 -111.40082 9005 ft 223 kts 143°
2026-04-24 00:56 32.53715 -111.38850 9005 ft 224 kts 143°
2026-04-24 00:56 32.52557 -111.37617 8992 ft 223 kts 143°
2026-04-24 00:57 32.51405 -111.36385 9002 ft 222 kts 143°
2026-04-24 00:57 32.50272 -111.35174 9006 ft 222 kts 143°
2026-04-24 00:57 32.47963 -111.32708 9003 ft 224 kts 143°
2026-04-24 00:58 32.46802 -111.31473 8999 ft 224 kts 143°
2026-04-24 00:58 32.45649 -111.30243 9003 ft 223 kts 142°
2026-04-24 00:58 32.44496 -111.29010 8993 ft 223 kts 143°
2026-04-24 00:58 32.43345 -111.27781 8997 ft 223 kts 143°
2026-04-24 00:59 32.42190 -111.26550 8991 ft 223 kts 143°
2026-04-24 00:59 32.41029 -111.25320 8995 ft 224 kts 143°